489  
ASUS45 KREV 182210  
RWRNV  
NEVADA REGIONAL WEATHER ROUNDUP  
NATIONAL WEATHER SERVICE RENO NV  
300 PM PDT THU OCT 18 2018  
 
NOTE: "FAIR" INDICATES FEW OR NO CLOUDS BELOW 12,000 FEET WITH NO  
SIGNIFICANT WEATHER AND/OR S TO VISIBILITY
.  
 
NVZ001-003-004-182300-  
WESTERN NEVADA  
 
CITY SKY/WX TMP DP RH WIND PRES REMARKS
 
RENO SUNNY 71 22 15 VRB6 30.22F  
CARSON CITY FAIR 70 16 12 NE8 30.22S  
MINDEN FAIR 68 18 14 N3 30.21F  
FALLON SUNNY 71 25 17 NE7 30.21F  
LOVELOCK SUNNY 69 22 16 VRB3 30.21F  
HAWTHORNE SUNNY 68 18 14 NW9 30.20F  

 
 
NVZ002-CAZ072-073-182300-  
NORTHERN AND CENTRAL SIERRA  
 
CITY SKY/WX TMP DP RH WIND PRES REMARKS
 
S. LAKE TAHOE SUNNY 62 24 23 NE9 30.28F  
TRUCKEE SUNNY 64 19 17 VRB12 30.26  
SQUAW VLY 8000 N/A 54 21 28 E2 N/A  
BLUE CANYON SUNNY 64 28 25 VRB5 30.26F  
MAMMOTH LAKES FAIR 63 11 13 S8 30.29S  
BRIDGEPORT FAIR 64 11 12 NE13G21 30.25S  

 
 
NVZ030-031-036-182300-  
NORTHERN NEVADA  
 
CITY SKY/WX TMP DP RH WIND PRES REMARKS
 
ELKO SUNNY 65 26 23 VRB6 30.23S  
WINNEMUCCA SUNNY 70 24 17 VRB6 30.22F  
WENDOVER SUNNY 60 31 33 SE5 30.24F  

 
 
NVZ035-037-182300-  
CENTRAL NEVADA  
 
CITY SKY/WX TMP DP RH WIND PRES REMARKS
 
ELY SUNNY 60 20 21 NE12 30.26S  
EUREKA N/A 62 20 19 MISG 30.25S  

 
 
NVZ013-014-182300-  
SOUTH CENTRAL NEVADA  
 
CITY SKY/WX TMP DP RH WIND PRES REMARKS
 
TONOPAH SUNNY 65 20 17 W8G18 30.23F  

 
 
NVZ017-020-022-182300-  
SOUTHERN NEVADA  
 
CITY SKY/WX TMP DP RH WIND PRES REMARKS
 
LAS VEGAS MOSUNNY 74 34 23 CALM 30.11F  
N. LAS VEGAS SUNNY 73 32 22 CALM 30.12F  
NELLIS AFB SUNNY 74 34 23 N7 30.10F  
HENDERSON SUNNY 73 34 23 VRB5 30.15F  
MERCURY SUNNY 75 27 17 E7 30.13F  

 
 
 
CLICK HERE TO GO TO PREVIOUS BULLETINS.

The Nexlab NV Page Main Text Page